Temp
17 18 19 20 21 21 21 22 23 25 26 24 24 24 26 26 26 26 25 25 24 22 20 16 14 11 10 11 10 10 10 10 10 10 10 10 10 10 10 10 9 10 10 10
19 18 20 21 21 21 21 20 21 23 25 23 23 23 25 26 26 26 26 25 24 22 19 16 14 11 10 10 10 10 10 10 10 10 10 10 11 10 10 8 8 9 9 10
18 20 21 20 21 19 20 19 20 21 24 23 22 22 24 26 26 26 25 25 25 23 20 17 14 12 10 10 11 10 10 10 10 10 10 10 10 9 8 8 8 8 9 9
20 21 21 20 20 20 19 20 20 21 22 20 24 21 24 26 26 26 25 25 24 24 21 18 15 13 10 10 10 10 9 10 9 10 10 10 11 9 8 8 8 8 8 10
19 19 19 20 20 20 19 20 20 20 21 21 22 21 23 26 26 26 26 26 25 23 21 19 16 15 12 10 10 9 10 10 9 9 10 10 10 9 9 8 8 8 9 9
18 21 20 20 21 20 20 19 19 20 20 19 21 22 22 25 26 26 26 25 25 23 21 19 17 15 13 10 10 10 9 9 9 9 9 9 10 9 9 9 9 9 8 8
17 18 19 19 19 20 19 18 17 14 15 18 22 21 22 26 26 26 26 25 24 23 21 20 18 16 14 11 10 10 9 9 9 9 9 9 9 9 9 9 9 8 8 8
16 16 19 19 19 19 19 18 18 15 17 19 22 21 23 26 27 26 25 25 24 23 21 20 19 17 15 12 10 10 9 9 9 10 9 9 9 9 9 9 9 9 9 9
17 17 19 20 20 19 19 17 20 18 19 18 21 22 23 25 25 25 25 25 24 23 22 20 20 17 16 13 12 11 10 10 9 10 10 9 9 9 9 9 9 9 10 10
16 16 18 19 18 19 19 21 18 19 16 16 20 21 22 23 24 25 25 25 24 24 22 21 20 18 17 15 13 11 11 11 10 9 9 9 9 9 9 10 10 9 10 10
15 15 16 17 17 18 18 18 19 20 19 18 18 20 24 23 23 24 25 24 24 24 22 21 21 19 17 16 14 12 12 12 12 10 10 9 9 9 10 10 10 10 10 10
14 14 15 16 18 18 18 19 19 17 18 19 19 20 23 22 22 23 23 24 23 23 22 22 22 20 18 16 15 13 12 12 12 12 11 10 10 10 9 10 10 10 10 10
13 14 14 15 16 17 16 18 19 19 18 17 18 18 23 22 22 22 22 23 23 23 23 22 21 21 19 17 16 15 13 12 12 12 12 11 11 10 10 10 10 10 10 10
10 13 13 14 15 15 14 16 17 16 15 17 18 19 21 22 22 22 21 22 23 23 23 22 21 21 20 18 17 16 14 13 12 12 12 11 11 11 11 10 10 10 10 10
11 11 13 13 14 14 14 15 15 15 16 15 17 18 20 21 21 22 21 21 22 23 23 23 22 21 20 19 18 17 15 13 13 13 12 12 11 11 11 10 10 10 10 10
10 10 12 12 13 13 13 15 16 16 17 17 17 17 20 21 20 20 20 21 21 22 23 22 22 21 20 19 18 17 16 15 14 13 13 12 12 11 11 10 10 10 10 9
9 10 9 10 13 13 12 14 15 16 17 17 16 18 20 19 20 21 21 21 21 22 22 22 22 22 21 20 19 18 17 16 14 13 13 12 12 11 11 10 10 10 10 9
7 9 8 9 10 9 14 17 16 15 16 17 18 19 18 18 19 19 20 21 21 21 21 21 21 21 21 20 20 18 17 16 14 13 13 13 12 12 11 11 10 10 10 9
9 7 7 8 10 12 13 15 14 15 15 15 16 16 16 16 16 17 19 20 20 19 19 19 20 20 20 20 19 18 17 16 14 13 13 12 11 11 11 10 9 9 9 9
10 8 7 8 8 9 15 15 15 14 13 14 14 14 13 13 14 16 14 14 15 15 14 16 17 18 17 17 17 16 16 15 13 13 12 11 10 10 9 9 8 8 8 8
8 6 6 8 8 10 14 14 13 11 11 13 13 13 13 13 11 11 11 11 12 10 11 12 14 15 15 15 14 14 13 13 11 11 10 9 8 8 8 8 8 8 7 6
8 7 6 7 7 7 13 13 12 12 12 13 12 12 12 12 11 9 10 10 8 7 7 10 11 11 11 11 11 10 9 8 8 8 8 8 8 8 7 7 6 6 5 5
7 11 10 10 10 13 13 12 12 12 12 12 11 11 11 11 10 9 9 9 7 6 5 6 7 7 7 7 8 7 6 7 7 8 7 6 6 6 5 5 4 4 3 2
13 13 12 12 13 14 14 13 13 13 12 12 11 10 10 10 11 8 7 6 5 5 4 4 5 5 5 5 5 7 6 6 7 7 6 5 5 4 3 2 1 1 0 -0
12 13 11 12 13 13 13 13 13 12 11 11 9 9 9 10 9 7 5 4 4 3 3 2 3 3 3 3 4 5 4 5 5 4 4 3 3 3 2 1 -0 -2 -3 -3
12 12 11 11 13 12 13 12 12 11 11 10 7 7 8 8 5 4 4 3 3 3 0 -0 0 1 1 2 2 3 3 4 4 3 2 1 2 1 -1 -1 -3 -4 -4 -3
Height
1457 1457 1446 1446 1444 1443 1443 1437 1430 1421 1418 1425 1427 1422 1417 1416 1414 1413 1416 1420 1423 1429 1434 1440 1442 1440 1441 1440 1442 1444 1446 1448 1448 1448 1446 1446 1448 1455 1463 1473 1482 1493 1502 1510
1446 1444 1439 1439 1438 1440 1441 1442 1435 1427 1421 1424 1427 1422 1414 1410 1408 1408 1409 1412 1419 1425 1431 1437 1440 1438 1439 1439 1441 1444 1445 1448 1450 1451 1452 1450 1455 1461 1466 1475 1484 1493 1502 1511
1437 1431 1432 1435 1434 1440 1437 1440 1436 1433 1421 1420 1427 1421 1412 1404 1402 1403 1406 1410 1411 1418 1426 1432 1436 1436 1437 1438 1439 1444 1446 1449 1451 1454 1456 1458 1463 1468 1474 1481 1488 1496 1503 1509
1427 1428 1424 1429 1430 1431 1434 1431 1434 1432 1429 1433 1413 1424 1402 1392 1389 1395 1400 1404 1408 1411 1421 1428 1433 1434 1433 1438 1438 1442 1446 1449 1452 1455 1458 1461 1463 1469 1477 1482 1488 1496 1504 1508
1423 1424 1424 1424 1423 1425 1429 1430 1432 1431 1426 1429 1420 1422 1403 1389 1389 1388 1392 1393 1399 1407 1416 1422 1428 1431 1433 1435 1439 1440 1444 1448 1452 1455 1459 1463 1467 1471 1477 1483 1489 1494 1500 1505
1423 1416 1419 1417 1419 1422 1427 1433 1429 1429 1427 1429 1416 1415 1402 1385 1380 1381 1389 1393 1393 1403 1411 1419 1425 1429 1431 1432 1436 1439 1442 1446 1450 1454 1459 1462 1465 1470 1476 1481 1486 1492 1496 1502
1423 1420 1418 1419 1418 1420 1426 1430 1439 1458 1447 1425 1401 1410 1401 1377 1379 1380 1384 1389 1395 1400 1408 1415 1421 1425 1428 1428 1431 1436 1440 1443 1447 1452 1458 1462 1466 1470 1475 1479 1485 1489 1496 1501
1420 1426 1411 1412 1411 1415 1419 1423 1425 1442 1431 1417 1392 1402 1390 1373 1376 1382 1385 1388 1391 1397 1403 1410 1416 1420 1424 1423 1425 1430 1434 1439 1442 1449 1454 1459 1464 1468 1472 1478 1483 1488 1492 1497
1411 1408 1403 1403 1409 1413 1414 1422 1412 1417 1413 1417 1398 1388 1383 1378 1381 1384 1384 1386 1390 1393 1398 1405 1411 1415 1420 1423 1422 1425 1430 1435 1437 1442 1449 1455 1459 1464 1470 1475 1480 1484 1489 1494
1414 1413 1406 1403 1410 1409 1409 1401 1418 1413 1428 1431 1405 1395 1388 1382 1378 1380 1381 1383 1386 1389 1395 1401 1406 1412 1416 1420 1423 1424 1428 1431 1434 1439 1443 1449 1455 1460 1466 1471 1475 1480 1484 1490
1421 1416 1409 1410 1408 1404 1409 1407 1406 1402 1405 1411 1412 1394 1369 1377 1380 1380 1379 1382 1384 1385 1391 1396 1402 1408 1413 1416 1419 1421 1425 1429 1432 1434 1439 1444 1450 1456 1462 1467 1472 1476 1480 1483
1427 1420 1413 1407 1401 1404 1402 1397 1402 1412 1408 1398 1402 1399 1379 1384 1387 1386 1386 1384 1386 1385 1389 1393 1398 1403 1408 1411 1414 1417 1421 1425 1429 1432 1435 1439 1445 1451 1457 1462 1467 1471 1475 1479
1433 1423 1419 1412 1408 1406 1406 1399 1397 1398 1402 1405 1406 1403 1375 1383 1388 1391 1392 1386 1385 1387 1388 1391 1395 1398 1402 1407 1409 1412 1415 1420 1425 1429 1432 1436 1440 1444 1449 1455 1461 1465 1469 1473
1442 1427 1422 1414 1412 1413 1415 1409 1406 1409 1414 1407 1401 1395 1385 1384 1385 1387 1391 1389 1385 1384 1387 1389 1391 1394 1397 1401 1404 1407 1410 1413 1419 1424 1428 1431 1436 1439 1443 1448 1452 1458 1463 1467
1439 1433 1424 1420 1417 1415 1414 1413 1411 1410 1411 1413 1403 1397 1390 1387 1387 1387 1387 1388 1388 1384 1384 1385 1387 1390 1393 1395 1399 1403 1406 1408 1411 1418 1423 1427 1431 1437 1441 1445 1448 1452 1456 1460
1439 1433 1427 1424 1420 1416 1413 1407 1403 1401 1401 1399 1400 1398 1393 1390 1391 1390 1389 1386 1383 1383 1383 1384 1384 1387 1389 1392 1394 1397 1401 1404 1406 1411 1415 1421 1424 1429 1434 1439 1443 1447 1451 1454
1441 1433 1436 1426 1413 1412 1415 1403 1399 1397 1395 1394 1396 1391 1388 1387 1385 1382 1383 1384 1382 1381 1380 1380 1381 1383 1385 1388 1390 1393 1396 1400 1401 1405 1409 1413 1419 1423 1427 1432 1438 1442 1445 1448
1445 1438 1440 1431 1427 1428 1401 1391 1391 1394 1390 1385 1385 1384 1388 1387 1386 1383 1380 1378 1378 1378 1378 1377 1379 1380 1380 1382 1385 1388 1391 1395 1398 1401 1405 1408 1411 1417 1423 1428 1433 1433 1436 1439
1437 1444 1441 1431 1419 1407 1399 1392 1395 1392 1390 1389 1388 1389 1392 1394 1392 1385 1380 1377 1376 1376 1376 1377 1378 1377 1377 1376 1379 1382 1386 1392 1395 1398 1400 1405 1409 1413 1414 1415 1420 1424 1428 1432
1427 1435 1440 1431 1426 1415 1387 1394 1398 1398 1396 1397 1398 1398 1400 1398 1391 1379 1383 1380 1377 1375 1375 1374 1373 1372 1372 1371 1373 1376 1377 1381 1391 1398 1398 1397 1399 1402 1408 1412 1416 1420 1423 1425
1423 1435 1434 1427 1425 1413 1398 1398 1401 1404 1407 1401 1401 1399 1397 1396 1398 1393 1387 1382 1378 1376 1372 1369 1368 1367 1366 1366 1369 1375 1373 1371 1376 1380 1386 1391 1396 1400 1405 1408 1411 1414 1418 1421
1415 1424 1429 1426 1428 1421 1399 1401 1402 1402 1401 1398 1398 1397 1395 1394 1392 1391 1387 1383 1379 1375 1371 1368 1365 1364 1364 1363 1360 1363 1364 1368 1371 1377 1383 1387 1391 1399 1402 1407 1409 1413 1417 1419
1412 1401 1403 1406 1405 1400 1399 1401 1400 1399 1398 1397 1397 1395 1393 1392 1390 1386 1383 1382 1376 1373 1370 1366 1364 1362 1361 1360 1359 1362 1365 1367 1370 1375 1380 1382 1386 1396 1401 1407 1411 1412 1417 1421
1389 1392 1394 1396 1394 1393 1392 1393 1394 1394 1393 1394 1396 1393 1392 1389 1383 1381 1382 1380 1377 1372 1370 1368 1366 1364 1363 1363 1361 1362 1366 1369 1371 1374 1380 1386 1388 1396 1401 1404 1413 1418 1419 1423
1390 1391 1394 1392 1390 1390 1390 1391 1392 1392 1393 1395 1395 1393 1388 1386 1382 1379 1379 1378 1376 1372 1370 1370 1368 1366 1366 1366 1365 1366 1370 1371 1372 1376 1382 1388 1389 1396 1406 1408 1414 1423 1423 1427
1391 1390 1391 1391 1389 1392 1390 1390 1392 1392 1393 1394 1394 1390 1387 1384 1384 1381 1377 1376 1374 1369 1370 1373 1372 1372 1371 1371 1373 1374 1376 1376 1376 1380 1388 1395 1390 1396 1411 1409 1414 1422 1423 1425
Wind_Speed
24 17 22 26 24 23 21 23 18 15 10 6 15 18 18 18 22 16 14 14 13 12 11 11 11 9 9 9 11 8 8 9 6 11 23 29 38 48 50 51 47 44 41 42
18 24 23 23 22 22 23 22 22 20 18 8 15 21 19 19 17 20 15 12 13 13 14 14 12 12 12 13 14 13 9 12 15 19 26 38 37 37 47 46 47 43 36 32
21 19 24 24 22 21 22 22 19 22 18 9 15 22 22 22 23 25 13 17 14 16 18 17 16 13 15 15 15 16 13 13 17 21 22 26 27 33 40 42 46 41 39 34
20 22 18 16 26 22 22 19 19 21 17 14 17 15 15 16 11 11 18 20 18 16 18 19 18 16 16 16 16 18 17 16 18 20 20 23 28 38 42 46 45 42 41 40
21 16 23 20 21 19 20 14 15 20 15 17 21 12 14 21 14 9 13 13 17 18 20 20 19 18 17 18 18 16 20 19 21 22 25 27 31 41 45 45 46 46 43 47
21 14 13 21 18 15 8 13 14 11 15 15 17 16 12 15 14 10 4 6 16 18 20 19 19 19 19 19 19 18 19 23 22 20 24 25 32 40 42 46 47 44 42 41
19 22 13 11 15 14 15 10 6 4 10 13 14 14 17 9 3 4 7 5 12 17 21 22 22 21 22 22 22 21 21 21 25 26 27 25 31 36 39 48 46 43 37 38
19 20 24 16 15 12 19 18 7 11 9 11 18 9 14 15 8 8 6 6 12 18 22 24 24 23 23 25 24 22 23 22 24 28 30 27 36 34 31 41 48 47 45 42
4 14 2 22 22 17 15 16 18 18 15 8 5 9 10 11 8 6 9 10 10 17 23 26 25 24 24 24 26 26 24 23 26 26 30 29 31 35 33 27 31 45 52 47
1 5 2 10 9 16 25 10 12 11 15 12 13 15 10 2 10 9 4 10 12 14 21 26 27 25 24 23 23 23 23 24 24 25 26 27 30 29 29 29 28 31 36 41
6 5 9 5 10 12 13 17 13 12 13 10 9 5 2 5 8 11 9 4 8 12 21 26 26 25 24 23 23 24 24 24 24 26 26 27 32 30 33 32 27 32 30 31
5 4 6 8 5 9 11 14 19 11 14 12 13 11 13 6 5 10 15 4 5 6 17 23 25 26 26 26 26 25 25 26 26 25 26 28 27 29 34 31 31 29 32 32
5 4 6 5 8 5 7 9 7 9 7 14 10 6 7 4 4 10 14 15 6 2 12 17 22 27 28 28 27 27 27 27 26 27 27 29 30 31 32 32 30 29 31 31
6 8 9 8 7 7 3 9 9 6 7 11 15 16 17 15 15 14 16 16 15 4 6 14 19 24 27 28 28 28 27 27 27 27 28 29 29 30 29 30 30 31 30 28
4 10 11 13 14 14 14 13 14 16 14 14 13 15 16 16 14 12 19 19 19 18 9 13 18 20 24 27 28 27 27 28 28 28 28 29 27 26 25 26 26 26 27 27
3 8 10 12 14 15 18 20 20 21 20 21 18 19 18 19 26 25 27 27 25 22 17 12 15 17 20 23 26 26 27 29 29 30 31 28 28 26 26 26 25 24 23 23
4 4 3 10 10 9 10 17 19 20 22 20 20 18 15 15 19 20 24 28 28 26 23 20 16 14 18 21 23 24 25 26 28 29 28 28 27 26 27 24 22 21 19 18
6 7 3 5 3 6 10 8 9 14 16 14 20 14 12 16 24 26 31 26 28 20 20 13 14 17 18 18 22 23 23 25 26 26 25 26 27 25 23 21 21 28 28 28
17 7 4 4 8 12 16 6 7 7 11 14 10 10 10 13 21 23 24 25 18 16 22 25 23 19 18 18 20 22 23 23 23 23 23 22 22 22 29 33 33 31 30 27
17 14 6 6 7 5 7 6 7 11 6 5 9 8 9 15 11 11 27 30 28 22 20 20 19 18 14 15 16 24 29 25 20 19 25 30 32 33 31 28 26 24 22 21
13 9 13 12 7 8 13 12 10 8 3 11 13 16 17 9 12 24 30 30 25 22 23 21 17 12 10 12 16 19 24 33 36 39 32 28 25 23 23 25 24 23 21 19
11 9 6 8 5 10 9 3 4 8 13 16 17 18 22 24 19 22 23 28 23 21 17 13 9 3 4 13 26 31 31 31 32 31 30 29 28 25 25 24 23 20 20 19
7 10 8 9 9 12 5 8 11 12 15 14 15 21 22 24 30 21 25 17 17 16 12 9 9 12 14 19 24 27 27 31 34 34 33 33 32 28 25 23 22 22 20 19
10 13 7 9 9 12 13 13 13 16 12 12 18 18 20 29 29 17 18 11 11 12 8 8 10 15 15 18 26 30 34 34 35 35 33 30 29 28 26 26 24 23 23 22
9 9 8 11 13 13 15 8 9 13 13 17 14 17 19 24 20 6 9 9 9 7 5 6 12 18 21 25 31 33 34 35 36 35 33 32 32 28 28 28 25 22 23 19
11 9 6 7 9 10 14 17 16 14 15 13 14 16 11 11 6 5 6 7 11 8 4 8 16 22 26 27 27 28 29 30 33 35 33 33 35 32 30 30 29 23 19 16
Wind_Direction
202 219 223 229 222 242 252 272 280 270 257 273 268 266 270 271 271 233 233 252 227 211 194 190 187 177 179 183 183 182 176 169 180 188 157 153 138 160 174 177 170 170 180 188
221 228 232 239 242 235 244 255 261 271 275 243 273 274 269 262 256 261 258 226 227 200 184 183 188 173 182 182 180 174 163 160 166 165 154 146 157 159 167 164 167 174 183 189
226 230 224 239 229 234 242 243 253 257 273 263 257 273 264 257 251 250 251 247 237 203 192 188 187 182 180 186 181 181 183 168 170 177 173 167 159 156 159 164 164 170 176 188
241 242 246 229 236 226 243 230 252 271 270 261 250 272 275 290 225 219 225 229 228 205 195 189 188 184 184 184 183 183 185 176 183 180 180 179 175 162 165 167 169 176 190 194
235 231 232 229 232 226 248 254 252 249 262 262 255 260 267 252 252 233 232 242 206 203 194 188 188 186 183 185 180 182 189 188 187 191 184 185 180 175 175 180 183 186 191 202
255 245 248 244 225 236 225 233 226 255 249 245 239 249 262 249 214 210 153 244 178 195 190 188 187 182 179 184 179 180 189 191 188 187 188 195 190 182 186 185 186 192 193 195
228 250 218 249 223 197 205 212 201 232 244 243 230 228 236 277 181 242 179 188 182 189 189 188 186 185 183 180 181 181 185 196 193 187 193 193 188 190 195 190 193 194 195 207
221 230 227 194 222 193 206 215 216 203 247 254 224 232 235 230 246 258 274 234 176 185 190 194 192 188 191 185 181 184 185 189 194 197 196 197 193 193 197 202 202 204 199 200
239 225 38 213 219 237 200 217 236 273 263 274 255 220 258 273 229 223 229 205 201 197 194 196 196 193 193 192 186 184 185 187 190 197 202 204 200 205 210 201 204 210 208 211
82 258 230 182 223 245 233 216 221 233 250 245 255 252 251 173 222 203 270 215 226 206 200 197 198 197 193 196 193 190 189 187 189 189 196 197 201 203 202 204 211 209 213 214
320 268 152 205 212 201 207 237 242 252 233 256 260 260 250 96 321 312 293 52 277 213 199 198 200 198 196 194 195 194 192 192 192 193 192 195 200 200 201 202 208 209 213 216
29 311 265 243 26 333 317 216 224 232 239 228 241 257 129 94 351 330 353 358 21 215 199 201 201 199 199 197 194 197 197 196 196 195 195 195 196 206 205 207 209 207 211 213
7 237 244 232 225 226 252 239 278 246 273 266 254 242 265 85 318 311 309 315 307 214 204 206 206 205 204 203 199 200 199 201 201 199 198 200 200 201 207 211 212 217 218 218
296 270 264 288 11 349 239 245 239 273 258 247 245 260 268 276 285 299 289 299 301 175 234 215 212 210 210 208 206 203 204 202 201 203 202 204 206 205 206 208 212 215 218 222
253 263 259 262 284 277 267 261 256 250 249 256 264 279 292 299 298 295 297 285 282 284 271 249 219 214 211 209 208 209 208 204 201 203 205 207 206 210 211 211 213 215 219 222
345 258 262 251 264 272 276 271 268 264 260 259 255 260 269 263 268 275 276 284 285 275 271 257 234 220 216 214 211 208 207 207 203 202 207 206 207 205 209 211 211 213 217 222
245 241 231 256 254 268 271 256 256 263 263 256 250 259 276 288 290 278 260 263 267 271 269 243 244 241 232 226 218 212 208 204 203 205 204 203 205 207 208 208 210 212 217 220
243 225 233 273 288 247 241 289 304 297 297 262 254 273 323 304 290 273 269 264 260 268 292 269 264 250 257 238 222 213 208 205 203 202 202 201 200 202 205 204 205 210 214 215
215 194 219 239 231 270 299 271 348 310 278 7 354 338 324 311 305 284 273 282 301 286 282 273 273 270 267 228 217 209 199 204 201 200 195 196 196 192 194 196 201 205 209 218
208 203 219 200 245 236 142 88 18 324 247 32 355 314 320 320 302 303 335 327 316 310 306 294 279 276 251 228 207 201 191 189 191 199 191 185 192 196 198 200 202 203 203 200
191 192 218 226 243 271 297 315 321 254 44 341 334 336 332 313 310 299 309 314 316 314 305 298 290 269 234 199 190 193 183 185 193 196 197 195 191 186 188 184 180 180 179 175
177 175 189 233 255 259 245 175 276 351 318 327 326 328 324 319 307 308 299 309 316 313 311 299 286 237 181 178 183 190 190 191 196 193 180 172 167 170 169 173 164 162 160 154
207 200 193 197 208 246 204 269 286 309 304 315 330 317 322 320 309 302 301 300 310 317 316 284 237 204 194 196 201 197 180 172 166 163 158 153 154 156 151 151 148 148 148 148
223 211 241 238 248 269 272 311 299 308 307 320 315 321 314 314 310 299 296 314 316 301 283 256 219 194 181 178 173 174 164 162 159 153 148 146 143 143 141 139 137 136 137 136
260 259 253 258 266 277 282 281 294 312 322 311 322 322 316 315 321 264 260 288 274 275 259 215 176 173 160 161 157 156 154 153 146 142 140 139 137 136 137 133 131 133 127 130
253 243 250 254 306 306 301 319 318 308 306 321 326 329 333 315 344 277 283 323 304 250 179 153 146 147 139 141 137 138 145 147 142 135 136 137 134 133 136 130 126 121 122 118